Location: Brienzwiler
(46.7508°N, 8.1014°E)
Time: 17:06:11
(UTC+00:00)

Cosmos 1371 Rocket - Pass Details

Date: 05 July 2020
Orbit: 753 x 790 km, 74.0° (Epoch: 10 August)

Event Time Altitude Azimuth Distance (km) Brightness Sun altitude
Rises 22:34:43 0° 336° (NNW) 3,244 8.8 -19.4°
Reaches altitude 10° 22:37:06 10° 334° (NNW) 2,319 7.7 -19.5°
Maximum altitude 22:42:21 72° 251° (WSW) 815 4.0 -19.7°
Enters shadow 22:44:16 40° 178° (S) 1,143 4.4 -19.7°
